| time (UTC) | temp C | wind direction | speed KPH | gust KPH | rain 1hr cm | rain 24hr cm | rain mn cm | humidity % | barometer mb |
| 20260510054604 | 12 | 175 | 1.6 | 3.2 | 0.03 | 1.02 | 0.15 | 3 | 1010.6 |
| 20260510053604 | 12 | 162 | 3.2 | 4.8 | 0.03 | 1.02 | 0.15 | 3 | 1010.4 |
| 20260510053104 | 11 | 157 | 3.2 | 4.8 | 0.03 | 1.02 | 0.15 | 3 | 1010.4 |
| 20260510052604 | 12 | 154 | 3.2 | 8.0 | 0.03 | 1.02 | 0.15 | 3 | 1010.4 |
| 20260510052104 | 12 | 153 | 3.2 | 4.8 | 0.03 | 1.02 | 0.15 | 3 | 1010.3 |
| 20260510051604 | 12 | 153 | 3.2 | 4.8 | 0.03 | 1.02 | 0.15 | 3 | 1010.3 |
| 20260510051104 | 12 | 171 | 4.8 | 8.0 | 0.03 | 1.02 | 0.15 | 3 | 1010.3 |
| 20260510050604 | 12 | 159 | 3.2 | 4.8 | 0.03 | 1.02 | 0.15 | 3 | 1010.4 |
| 20260510050104 | 11 | 177 | 4.8 | 9.7 | 0.00 | 0.99 | 0.13 | 3 | 1010.4 |
| 20260510045604 | 11 | 185 | 3.2 | 4.8 | 0.00 | 0.99 | 0.13 | 3 | 1010.3 |
| 20260510045104 | 11 | 188 | 3.2 | 4.8 | 0.00 | 0.99 | 0.13 | 3 | 1010.3 |
| 20260510044604 | 12 | 239 | 1.6 | 3.2 | 0.00 | 0.99 | 0.13 | 3 | 1010.4 |
| 20260510044104 | 12 | 193 | 0.0 | 3.2 | 0.00 | 0.99 | 0.13 | 3 | 1010.4 |
| 20260510043104 | 12 | 156 | 3.2 | 4.8 | 0.00 | 0.99 | 0.13 | 3 | 1010.4 |
| 20260510042604 | 12 | 162 | 3.2 | 4.8 | 0.00 | 0.99 | 0.13 | 3 | 1010.4 |
| 20260510042105 | 12 | 173 | 1.6 | 4.8 | 0.00 | 0.99 | 0.13 | 3 | 1010.4 |
| 20260510041104 | 12 | 175 | 3.2 | 4.8 | 0.00 | 0.99 | 0.13 | 3 | 1010.6 |
| 20260510040105 | 12 | 168 | 1.6 | 3.2 | 0.00 | 0.99 | 0.13 | 3 | 1010.6 |
| 20260510034604 | 12 | 169 | 3.2 | 3.2 | 0.00 | 0.99 | 0.13 | 3 | 1010.6 |
| 20260510034105 | 12 | 169 | 1.6 | 3.2 | 0.00 | 0.99 | 0.13 | 3 | 1010.6 |
| 20260510033604 | 12 | 169 | 1.6 | 3.2 | 0.00 | 0.99 | 0.13 | 3 | 1010.6 |
| 20260510032604 | 12 | 169 | 3.2 | 4.8 | 0.00 | 0.99 | 0.13 | 3 | 1010.6 |
| 20260510032104 | 12 | 169 | 1.6 | 3.2 | 0.00 | 0.99 | 0.13 | 3 | 1010.6 |
| 20260510031605 | 12 | 169 | 1.6 | 3.2 | 0.00 | 0.99 | 0.13 | 3 | 1010.6 |
| 20260510031103 | 12 | 169 | 1.6 | 3.2 | 0.00 | 0.99 | 0.13 | 3 | 1010.7 |
| 20260510030604 | 12 | 169 | 1.6 | 3.2 | 0.00 | 0.99 | 0.13 | 3 | 1010.7 |
| 20260510030104 | 12 | 169 | 0.0 | 3.2 | 0.00 | 0.99 | 0.13 | 3 | 1010.7 |
| 20260510025604 | 12 | 169 | 1.6 | 4.8 | 0.00 | 0.99 | 0.13 | 3 | 1010.6 |
| 20260510025104 | 12 | 169 | 3.2 | 4.8 | 0.00 | 0.99 | 0.13 | 3 | 1010.7 |
| 20260510024604 | 12 | 155 | 3.2 | 8.0 | 0.00 | 0.99 | 0.13 | 3 | 1010.7 |
| 20260510024104 | 12 | 167 | 3.2 | 4.8 | 0.00 | 0.99 | 0.13 | 3 | 1010.7 |
| 20260510023604 | 13 | 186 | 1.6 | 4.8 | 0.00 | 0.99 | 0.13 | 3 | 1010.5 |
| 20260510023103 | 13 | 187 | 1.6 | 3.2 | 0.00 | 0.99 | 0.13 | 3 | 1010.5 |
| 20260510022604 | 13 | 188 | 0.0 | 1.6 | 0.00 | 0.99 | 0.13 | 3 | 1010.5 |
| 20260510022104 | 13 | 188 | 0.0 | 0.0 | 0.00 | 0.99 | 0.13 | 3 | 1010.6 |
| 20260510021104 | 13 | 188 | 1.6 | 8.0 | 0.00 | 0.99 | 0.13 | 3 | 1010.5 |
| 20260510020604 | 13 | 178 | 3.2 | 4.8 | 0.00 | 0.99 | 0.13 | 3 | 1010.6 |
| 20260510020104 | 13 | 175 | 1.6 | 4.8 | 0.00 | 0.99 | 0.13 | 3 | 1010.6 |
| 20260510015604 | 13 | 182 | 3.2 | 4.8 | 0.00 | 0.99 | 0.13 | 3 | 1010.7 |
| 20260510015104 | 13 | 178 | 3.2 | 8.0 | 0.00 | 0.99 | 0.13 | 3 | 1010.7 |
| 20260510014604 | 13 | 152 | 4.8 | 9.7 | 0.00 | 0.99 | 0.13 | 3 | 1010.7 |
| 20260510014104 | 13 | 171 | 4.8 | 8.0 | 0.00 | 0.99 | 0.13 | 3 | 1010.7 |
| 20260510013603 | 13 | 173 | 4.8 | 8.0 | 0.00 | 0.99 | 0.13 | 3 | 1010.6 |
| 20260510013104 | 13 | 179 | 1.6 | 4.8 | 0.00 | 0.99 | 0.13 | 3 | 1010.7 |
| 20260510012604 | 13 | 186 | 3.2 | 4.8 | 0.00 | 0.99 | 0.13 | 3 | 1010.7 |
| 20260510012104 | 13 | 150 | 1.6 | 4.8 | 0.00 | 0.99 | 0.13 | 3 | 1010.7 |
| 20260510011104 | 13 | 150 | 3.2 | 4.8 | 0.00 | 0.99 | 0.13 | 3 | 1011.0 |
| 20260510010604 | 13 | 183 | 4.8 | 8.0 | 0.00 | 0.99 | 0.13 | 3 | 1011.0 |
| 20260510010104 | 13 | 158 | 3.2 | 8.0 | 0.00 | 0.99 | 0.13 | 3 | 1011.0 |
| 20260510005604 | 14 | 181 | 3.2 | 8.0 | 0.00 | 0.99 | 0.13 | 3 | 1011.1 |
| 20260510005103 | 14 | 170 | 4.8 | 9.7 | 0.00 | 0.99 | 0.13 | 3 | 1011.1 |
| 20260510004604 | 14 | 183 | 4.8 | 9.7 | 0.00 | 0.99 | 0.13 | 3 | 1011.2 |
| 20260510004104 | 14 | 181 | 6.4 | 9.7 | 0.03 | 0.99 | 0.13 | 3 | 1011.3 |
| 20260510003604 | 14 | 169 | 3.2 | 8.0 | 0.03 | 0.99 | 0.13 | 3 | 1011.4 |
| 20260510003104 | 14 | 154 | 3.2 | 4.8 | 0.03 | 0.99 | 0.13 | 3 | 1011.4 |
| 20260510002604 | 15 | 181 | 3.2 | 4.8 | 0.03 | 0.99 | 0.13 | 3 | 1011.6 |
| 20260510002104 | 15 | 200 | 3.2 | 4.8 | 0.03 | 0.99 | 0.13 | 3 | 1011.6 |
| 20260510001604 | 15 | 180 | 4.8 | 8.0 | 0.03 | 0.99 | 0.13 | 3 | 1011.6 |
| 20260510001104 | 15 | 191 | 3.2 | 4.8 | 0.03 | 0.99 | 0.13 | 3 | 1011.8 |
| 20260510000604 | 15 | 185 | 3.2 | 4.8 | 0.03 | 0.99 | 0.13 | 3 | 1011.8 |
| 20260510000104 | 15 | 192 | 3.2 | 8.0 | 0.03 | 0.99 | 0.13 | 3 | 1012.0 |
| 20260509235603 | 15 | 167 | 4.8 | 9.7 | 0.05 | 0.99 | 0.13 | 3 | 1012.1 |
| 20260509235104 | 15 | 170 | 3.2 | 8.0 | 0.05 | 0.99 | 0.13 | 3 | 1012.2 |
| 20260509234604 | 15 | 178 | 3.2 | 4.8 | 0.05 | 0.99 | 0.13 | 3 | 1012.3 |
| 20260509234104 | 15 | 175 | 3.2 | 4.8 | 0.05 | 0.99 | 0.10 | 3 | 1012.3 |
| 20260509233604 | 15 | 177 | 3.2 | 4.8 | 0.05 | 0.99 | 0.10 | 3 | 1012.4 |
| 20260509232605 | 15 | 186 | 1.6 | 3.2 | 0.05 | 0.99 | 0.10 | 3 | 1012.5 |
| 20260509232104 | 15 | 194 | 1.6 | 4.8 | 0.05 | 0.99 | 0.10 | 3 | 1012.5 |
| 20260509231604 | 15 | 194 | 1.6 | 4.8 | 0.05 | 0.99 | 0.10 | 3 | 1012.5 |
| 20260509231104 | 15 | 168 | 4.8 | 4.8 | 0.08 | 0.99 | 0.10 | 3 | 1012.6 |
| 20260509230604 | 15 | 159 | 1.6 | 4.8 | 0.10 | 0.99 | 0.10 | 3 | 1012.5 |
| 20260509224604 | 15 | 217 | 1.6 | 3.2 | 0.10 | 0.97 | 0.08 | 3 | 1012.6 |
| 20260509224104 | 15 | 232 | 0.0 | 3.2 | 0.10 | 0.94 | 0.05 | 3 | 1012.6 |
| 20260509223604 | 15 | 265 | 0.0 | 3.2 | 0.13 | 0.94 | 0.05 | 3 | 1012.6 |
| 20260509223103 | 15 | 265 | 3.2 | 4.8 | 0.13 | 0.94 | 0.05 | 3 | 1012.6 |
| 20260509222604 | 15 | 222 | 1.6 | 4.8 | 0.15 | 0.94 | 0.05 | 3 | 1012.5 |
| 20260509222103 | 15 | 170 | 3.2 | 4.8 | 0.15 | 0.94 | 0.05 | 3 | 1012.5 |
| 20260509221604 | 15 | 170 | 1.6 | 4.8 | 0.15 | 0.91 | 0.05 | 3 | 1012.6 |
| 20260509221104 | 15 | 187 | 1.6 | 3.2 | 0.13 | 0.89 | 0.03 | 3 | 1012.7 |
| 20260509220604 | 15 | 187 | 3.2 | 4.8 | 0.10 | 0.89 | 0.00 | 3 | 1012.6 |
| 20260509220104 | 15 | 184 | 1.6 | 3.2 | 0.13 | 0.89 | 0.00 | 3 | 1012.6 |
| 20260509215603 | 15 | 180 | 1.6 | 3.2 | 0.10 | 0.86 | 0.86 | 3 | 1012.6 |
| 20260509215103 | 15 | 179 | 3.2 | 4.8 | 0.10 | 0.86 | 0.86 | 3 | 1012.6 |
| 20260509214605 | 15 | 178 | 3.2 | 4.8 | 0.10 | 0.86 | 0.86 | 3 | 1012.6 |
| 20260509214104 | 15 | 167 | 1.6 | 4.8 | 0.08 | 0.84 | 0.84 | 3 | 1012.6 |
| 20260509213604 | 15 | 167 | 0.0 | 4.8 | 0.05 | 0.81 | 0.81 | 3 | 1012.5 |
| 20260509212604 | 15 | 167 | 1.6 | 4.8 | 0.05 | 0.79 | 0.79 | 3 | 1012.5 |
| 20260509212104 | 15 | 168 | 1.6 | 4.8 | 0.05 | 0.79 | 0.79 | 3 | 1012.5 |
| 20260509211603 | 15 | 167 | 1.6 | 8.0 | 0.03 | 0.79 | 0.79 | 3 | 1012.4 |
| 20260509211104 | 15 | 145 | 1.6 | 4.8 | 0.03 | 0.79 | 0.79 | 3 | 1012.4 |
| 20260509210604 | 15 | 174 | 3.2 | 8.0 | 0.03 | 0.79 | 0.79 | 3 | 1012.4 |
| 20260509210104 | 15 | 179 | 3.2 | 8.0 | 0.03 | 0.76 | 0.76 | 3 | 1012.3 |
| 20260509205604 | 15 | 180 | 1.6 | 3.2 | 0.03 | 0.76 | 0.76 | 3 | 1012.2 |
| 20260509205104 | 15 | 180 | 1.6 | 3.2 | 0.03 | 0.76 | 0.76 | 3 | 1012.1 |
| 20260509204604 | 15 | 180 | 1.6 | 3.2 | 0.03 | 0.76 | 0.76 | 3 | 1012.0 |
| 20260509203604 | 15 | 229 | 0.0 | 3.2 | 0.03 | 0.76 | 0.76 | 3 | 1011.7 |
| 20260509203103 | 15 | 229 | 0.0 | 4.8 | 0.03 | 0.76 | 0.76 | 3 | 1011.7 |
| 20260509202604 | 15 | 232 | 1.6 | 4.8 | 0.05 | 0.76 | 0.76 | 3 | 1011.4 |
| 20260509202104 | 15 | 333 | 1.6 | 4.8 | 0.05 | 0.76 | 0.76 | 3 | 1011.3 |
| 20260509201605 | 15 | 285 | 0.0 | 3.2 | 0.05 | 0.76 | 0.76 | 3 | 1011.1 |
| 20260509201104 | 15 | 285 | 1.6 | 4.8 | 0.10 | 0.76 | 0.76 | 3 | 1011.0 |
| 20260509200604 | 15 | 272 | 4.8 | 12.9 | 0.15 | 0.76 | 0.76 | 3 | 1010.8 |
| 20260509200104 | 15 | 292 | 4.8 | 12.9 | 0.15 | 0.74 | 0.74 | 3 | 1010.6 |
| 20260509194604 | 14 | 355 | 11.3 | 20.9 | 0.20 | 0.74 | 0.74 | 3 | 1010.0 |
| 20260509194104 | 14 | 0 | 20.9 | 24.1 | 0.23 | 0.74 | 0.74 | 3 | 1009.7 |
| 20260509193604 | 14 | 6 | 19.3 | 20.9 | 0.23 | 0.74 | 0.74 | 3 | 1009.7 |
| 20260509193104 | 15 | 3 | 11.3 | 19.3 | 0.25 | 0.74 | 0.74 | 3 | 1010.3 |
| 20260509192604 | 15 | 359 | 8.0 | 12.9 | 0.25 | 0.71 | 0.71 | 3 | 1010.7 |
| 20260509192104 | 15 | 27 | 4.8 | 8.0 | 0.28 | 0.71 | 0.71 | 3 | 1010.9 |
| 20260509191604 | 15 | 33 | 1.6 | 4.8 | 0.28 | 0.71 | 0.71 | 3 | 1011.0 |
| 20260509191104 | 15 | 257 | 0.0 | 1.6 | 0.25 | 0.66 | 0.66 | 3 | 1011.1 |
| 20260509190604 | 15 | 257 | 0.0 | 3.2 | 0.25 | 0.61 | 0.61 | 3 | 1011.2 |
| 20260509190104 | 15 | 257 | 1.6 | 3.2 | 0.28 | 0.61 | 0.61 | 3 | 1011.3 |
| 20260509185604 | 14 | 110 | 0.0 | 1.6 | 0.28 | 0.58 | 0.58 | 3 | 1011.4 |
| 20260509185103 | 14 | 110 | 1.6 | 4.8 | 0.33 | 0.56 | 0.56 | 3 | 1011.4 |
| 20260509184604 | 14 | 133 | 3.2 | 9.7 | 0.33 | 0.53 | 0.53 | 3 | 1011.6 |
| 20260509183603 | 15 | 144 | 6.4 | 12.9 | 0.36 | 0.51 | 0.51 | 3 | 1011.9 |
| 20260509183104 | 15 | 149 | 4.8 | 9.7 | 0.38 | 0.48 | 0.48 | 3 | 1011.9 |
| 20260509182104 | 15 | 180 | 1.6 | 4.8 | 0.38 | 0.43 | 0.43 | 3 | 1012.0 |
| 20260509181603 | 14 | 199 | 1.6 | 4.8 | 0.38 | 0.43 | 0.43 | 3 | 1012.1 |
| 20260509181104 | 14 | 199 | 1.6 | 3.2 | 0.38 | 0.41 | 0.41 | 3 | 1012.0 |
| 20260509180604 | 14 | 199 | 1.6 | 3.2 | 0.36 | 0.36 | 0.36 | 3 | 1012.0 |
| 20260509180105 | 14 | 199 | 1.6 | 8.0 | 0.33 | 0.33 | 0.33 | 3 | 1011.9 |
| 20260509175603 | 14 | 170 | 3.2 | 8.0 | 0.30 | 0.30 | 0.30 | 3 | 1011.9 |
| 20260509175103 | 14 | 189 | 3.2 | 4.8 | 0.23 | 0.23 | 0.23 | 3 | 1011.8 |
| 20260509174604 | 15 | 173 | 3.2 | 4.8 | 0.20 | 0.20 | 0.20 | 3 | 1011.7 |
| 20260509174104 | 15 | 214 | 3.2 | 8.0 | 0.15 | 0.15 | 0.15 | 3 | 1011.7 |
| 20260509173604 | 15 | 217 | 3.2 | 8.0 | 0.15 | 0.15 | 0.15 | 3 | 1011.8 |
| 20260509172603 | 17 | 197 | 3.2 | 4.8 | 0.08 | 0.08 | 0.08 | 3 | 1011.8 |
| 20260509172103 | 17 | 175 | 1.6 | 3.2 | 0.05 | 0.05 | 0.05 | 3 | 1011.6 |
| 20260509171604 | 17 | 207 | 1.6 | 4.8 | 0.05 | 0.05 | 0.05 | 3 | 1011.5 |
| 20260509171104 | 17 | 186 | 3.2 | 4.8 | 0.03 | 0.03 | 0.03 | 3 | 1011.5 |
| 20260509170603 | 17 | 184 | 3.2 | 4.8 | 0.00 | 0.00 | 0.00 | 3 | 1011.4 |
| 20260509170104 | 17 | 200 | 3.2 | 4.8 | 0.00 | 0.00 | 0.00 | 3 | 1011.3 |
| 20260509165604 | 17 | 193 | 3.2 | 8.0 | 0.00 | 0.00 | 0.00 | 3 | 1011.3 |
| 20260509165104 | 17 | 193 | 3.2 | 4.8 | 0.00 | 0.00 | 0.00 | 3 | 1011.2 |
| 20260509163604 | 17 | 182 | 3.2 | 4.8 | 0.00 | 0.00 | 0.00 | 3 | 1010.9 |
| 20260509163104 | 17 | 203 | 3.2 | 8.0 | 0.00 | 0.00 | 0.00 | 3 | 1010.8 |
| 20260509162604 | 17 | 152 | 4.8 | 9.7 | 0.00 | 0.00 | 0.00 | 3 | 1010.6 |
| 20260509161104 | 17 | 63 | 3.2 | 4.8 | 0.00 | 0.00 | 0.00 | 3 | 1010.7 |
| 20260509160604 | 17 | 227 | 0.0 | 4.8 | 0.00 | 0.00 | 0.00 | 3 | 1010.7 |
| 20260509155604 | 17 | 84 | 4.8 | 11.3 | 0.00 | 0.00 | 0.00 | 3 | 1010.9 |
| 20260509155103 | 17 | 141 | 1.6 | 4.8 | 0.00 | 0.00 | 0.00 | 3 | 1011.1 |
| 20260509154104 | 17 | 76 | 3.2 | 9.7 | 0.00 | 0.00 | 0.00 | 3 | 1011.2 |
| 20260509153104 | 17 | 56 | 4.8 | 12.9 | 0.00 | 0.00 | 0.00 | 3 | 1011.2 |
| 20260509152104 | 17 | 41 | 6.4 | 11.3 | 0.00 | 0.00 | 0.00 | 3 | 1011.5 |
| 20260509151604 | 17 | 41 | 4.8 | 8.0 | 0.00 | 0.00 | 0.00 | 3 | 1011.7 |
| 20260509150104 | 18 | 55 | 4.8 | 11.3 | 0.00 | 0.00 | 0.00 | 3 | 1011.9 |
| 20260509145604 | 18 | 52 | 8.0 | 9.7 | 0.00 | 0.00 | 0.00 | 3 | 1011.8 |
| 20260509145104 | 18 | 151 | 1.6 | 4.8 | 0.00 | 0.00 | 0.00 | 3 | 1011.8 |
| 20260509144604 | 18 | 131 | 1.6 | 8.0 | 0.00 | 0.00 | 0.00 | 3 | 1011.9 |
| 20260509144104 | 18 | 53 | 0.0 | 4.8 | 0.00 | 0.00 | 0.00 | 3 | 1011.9 |
| 20260509143604 | 18 | 179 | 1.6 | 4.8 | 0.00 | 0.00 | 0.00 | 3 | 1011.9 |
| 20260509142104 | 18 | 143 | 3.2 | 4.8 | 0.00 | 0.00 | 0.00 | 8 | 1011.9 |
| 20260509141105 | 18 | 163 | 3.2 | 11.3 | 0.00 | 0.00 | 0.00 | 13 | 1011.8 |
| 20260509140604 | 18 | 213 | 8.0 | 12.9 | 0.00 | 0.00 | 0.00 | 15 | 1011.9 |
| 20260509140104 | 18 | 154 | 8.0 | 14.5 | 0.00 | 0.00 | 0.00 | 20 | 1011.9 |
| 20260509134604 | 18 | 164 | 8.0 | 16.1 | 0.00 | 0.00 | 0.00 | 20 | 1012.0 |
| 20260509134104 | 18 | 181 | 9.7 | 19.3 | 0.00 | 0.00 | 0.00 | 8 | 1012.0 |
| 20260509133603 | 19 | 155 | 9.7 | 16.1 | 0.00 | 0.00 | 0.00 | 9 | 1012.1 |
| 20260509133104 | 19 | 157 | 4.8 | 16.1 | 0.00 | 0.00 | 0.00 | 3 | 1012.1 |
| 20260509132604 | 19 | 156 | 3.2 | 14.5 | 0.00 | 0.00 | 0.00 | 3 | 1012.2 |
| 20260509132104 | 19 | 59 | 1.6 | 12.9 | 0.00 | 0.00 | 0.00 | 3 | 1012.3 |
| 20260509131604 | 18 | 152 | 6.4 | 12.9 | 0.00 | 0.00 | 0.00 | 3 | 1012.1 |
| 20260509131104 | 18 | 191 | 3.2 | 4.8 | 0.00 | 0.00 | 0.00 | 3 | 1012.3 |
| 20260509130104 | 18 | 120 | 4.8 | 16.1 | 0.00 | 0.00 | 0.00 | 3 | 1012.4 |
| 20260509125603 | 18 | 138 | 1.6 | 9.7 | 0.00 | 0.00 | 0.00 | 3 | 1012.5 |
| 20260509125104 | 18 | 137 | 9.7 | 16.1 | 0.00 | 0.00 | 0.00 | 3 | 1012.7 |
| 20260509124605 | 18 | 162 | 8.0 | 19.3 | 0.00 | 0.00 | 0.00 | 3 | 1012.9 |
| 20260509124103 | 18 | 134 | 6.4 | 14.5 | 0.00 | 0.00 | 0.00 | 3 | 1013.0 |
| 20260509123604 | 18 | 111 | 9.7 | 16.1 | 0.00 | 0.00 | 0.00 | 3 | 1013.1 |
| 20260509123104 | 18 | 133 | 8.0 | 19.3 | 0.00 | 0.00 | 0.00 | 3 | 1013.1 |
| 20260509122604 | 18 | 128 | 4.8 | 12.9 | 0.00 | 0.00 | 0.00 | 3 | 1013.1 |
| 20260509122104 | 18 | 133 | 8.0 | 14.5 | 0.00 | 0.00 | 0.00 | 3 | 1013.2 |
| 20260509120603 | 18 | 188 | 4.8 | 12.9 | 0.00 | 0.00 | 0.00 | 3 | 1013.2 |
| 20260509120104 | 17 | 104 | 8.0 | 16.1 | 0.00 | 0.00 | 0.00 | 3 | 1013.0 |
| 20260509115604 | 17 | 114 | 4.8 | 11.3 | 0.00 | 0.00 | 0.00 | 3 | 1013.1 |
| 20260509115104 | 17 | 178 | 8.0 | 19.3 | 0.00 | 0.00 | 0.00 | 3 | 1013.1 |
| 20260509114604 | 18 | 170 | 8.0 | 16.1 | 0.00 | 0.00 | 0.00 | 3 | 1013.1 |
| 20260509114104 | 18 | 120 | 4.8 | 14.5 | 0.00 | 0.00 | 0.00 | 3 | 1013.1 |
| 20260509113603 | 18 | 173 | 11.3 | 20.9 | 0.00 | 0.00 | 0.00 | 3 | 1013.1 |
| 20260509113104 | 18 | 167 | 9.7 | 20.9 | 0.00 | 0.00 | 0.00 | 3 | 1013.2 |
| 20260509112604 | 18 | 135 | 8.0 | 19.3 | 0.00 | 0.00 | 0.00 | 3 | 1013.2 |
| 20260509112104 | 18 | 156 | 8.0 | 20.9 | 0.00 | 0.00 | 0.00 | 3 | 1013.4 |
| 20260509111603 | 18 | 176 | 9.7 | 19.3 | 0.00 | 0.00 | 0.00 | 3 | 1013.4 |
| 20260509111104 | 18 | 131 | 11.3 | 19.3 | 0.00 | 0.00 | 0.00 | 3 | 1013.4 |
| 20260509110604 | 18 | 130 | 11.3 | 22.5 | 0.00 | 0.00 | 0.00 | 3 | 1013.4 |
| 20260509105104 | 18 | 161 | 4.8 | 19.3 | 0.00 | 0.00 | 0.00 | 3 | 1013.7 |
| 20260509104604 | 17 | 144 | 11.3 | 20.9 | 0.00 | 0.00 | 0.00 | 3 | 1013.8 |
| 20260509104108 | 18 | 162 | 12.9 | 24.1 | 0.00 | 0.00 | 0.00 | 3 | 1013.7 |
| 20260509103604 | 18 | 172 | 8.0 | 19.3 | 0.00 | 0.00 | 0.00 | 3 | 1013.6 |
| 20260509103104 | 18 | 160 | 8.0 | 22.5 | 0.00 | 0.00 | 0.00 | 3 | 1013.7 |
| 20260509102603 | 18 | 152 | 9.7 | 22.5 | 0.00 | 0.00 | 0.00 | 3 | 1013.8 |
| 20260509102104 | 18 | 179 | 8.0 | 19.3 | 0.00 | 0.00 | 0.00 | 3 | 1013.8 |
| 20260509101104 | 18 | 180 | 9.7 | 19.3 | 0.00 | 0.00 | 0.00 | 3 | 1013.6 |
| 20260509100604 | 18 | 151 | 11.3 | 20.9 | 0.00 | 0.00 | 0.00 | 3 | 1013.6 |
| 20260509100104 | 18 | 169 | 4.8 | 12.9 | 0.00 | 0.00 | 0.00 | 3 | 1013.6 |
| 20260509095604 | 18 | 136 | 12.9 | 19.3 | 0.00 | 0.00 | 0.00 | 3 | 1013.5 |
| 20260509095104 | 18 | 192 | 6.4 | 12.9 | 0.00 | 0.00 | 0.00 | 3 | 1013.6 |
| 20260509094104 | 17 | 118 | 3.2 | 12.9 | 0.00 | 0.00 | 0.00 | 3 | 1013.3 |
| 20260509093604 | 18 | 139 | 8.0 | 19.3 | 0.00 | 0.00 | 0.00 | 3 | 1013.3 |
| 20260509093104 | 18 | 133 | 8.0 | 19.3 | 0.00 | 0.00 | 0.00 | 3 | 1013.2 |
| 20260509092604 | 18 | 170 | 8.0 | 19.3 | 0.00 | 0.00 | 0.00 | 3 | 1013.1 |
| 20260509092104 | 18 | 171 | 8.0 | 19.3 | 0.00 | 0.00 | 0.00 | 3 | 1013.0 |
| 20260509091603 | 18 | 126 | 9.7 | 16.1 | 0.00 | 0.00 | 0.00 | 3 | 1013.0 |
| 20260509091104 | 17 | 149 | 9.7 | 16.1 | 0.00 | 0.00 | 0.00 | 3 | 1013.0 |
| 20260509090104 | 17 | 143 | 11.3 | 16.1 | 0.00 | 0.00 | 0.00 | 3 | 1013.1 |
| 20260509085604 | 17 | 154 | 9.7 | 16.1 | 0.00 | 0.00 | 0.00 | 3 | 1013.2 |
| 20260509085103 | 17 | 156 | 11.3 | 19.3 | 0.00 | 0.00 | 0.00 | 3 | 1013.3 |
| 20260509084604 | 17 | 136 | 9.7 | 16.1 | 0.00 | 0.00 | 0.00 | 3 | 1013.3 |
| 20260509084104 | 17 | 152 | 9.7 | 19.3 | 0.00 | 0.00 | 0.00 | 3 | 1013.4 |
| 20260509083603 | 18 | 144 | 9.7 | 19.3 | 0.00 | 0.00 | 0.00 | 3 | 1013.4 |
| 20260509083104 | 18 | 156 | 8.0 | 16.1 | 0.00 | 0.00 | 0.00 | 3 | 1013.3 |
| 20260509082604 | 17 | 157 | 8.0 | 16.1 | 0.00 | 0.00 | 0.00 | 3 | 1013.5 |
| 20260509082104 | 17 | 167 | 11.3 | 19.3 | 0.00 | 0.00 | 0.00 | 3 | 1013.4 |
| 20260509081604 | 17 | 185 | 8.0 | 12.9 | 0.00 | 0.00 | 0.00 | 3 | 1013.4 |
| 20260509081104 | 17 | 136 | 6.4 | 14.5 | 0.00 | 0.00 | 0.00 | 3 | 1013.4 |
| 20260509075604 | 17 | 177 | 4.8 | 11.3 | 0.00 | 0.00 | 0.00 | 3 | 1013.5 |
| 20260509075104 | 17 | 180 | 8.0 | 11.3 | 0.00 | 0.00 | 0.00 | 3 | 1013.4 |
| 20260509074604 | 17 | 213 | 8.0 | 12.9 | 0.00 | 0.00 | 0.00 | 3 | 1013.5 |
| 20260509074104 | 17 | 191 | 6.4 | 14.5 | 0.00 | 0.00 | 0.00 | 3 | 1013.6 |
| 20260509073604 | 17 | 177 | 8.0 | 12.9 | 0.00 | 0.00 | 0.00 | 3 | 1013.6 |
| 20260509073103 | 17 | 178 | 8.0 | 12.9 | 0.00 | 0.00 | 0.00 | 3 | 1013.6 |
| 20260509072603 | 17 | 197 | 6.4 | 12.9 | 0.00 | 0.00 | 0.00 | 3 | 1013.6 |
| 20260509072104 | 17 | 197 | 6.4 | 14.5 | 0.00 | 0.00 | 0.00 | 3 | 1013.6 |
| 20260509071604 | 17 | 209 | 8.0 | 12.9 | 0.00 | 0.00 | 0.00 | 3 | 1013.6 |
| 20260509071103 | 17 | 206 | 6.4 | 12.9 | 0.00 | 0.00 | 0.00 | 3 | 1013.5 |
| 20260509070604 | 17 | 195 | 4.8 | 14.5 | 0.00 | 0.00 | 0.00 | 3 | 1013.6 |
| 20260509070104 | 17 | 184 | 8.0 | 14.5 | 0.00 | 0.00 | 0.00 | 3 | 1013.6 |
| 20260509065104 | 17 | 178 | 4.8 | 11.3 | 0.00 | 0.00 | 0.00 | 3 | 1013.5 |
| 20260509064604 | 17 | 191 | 3.2 | 9.7 | 0.00 | 0.00 | 0.00 | 3 | 1013.5 |
| 20260509064104 | 17 | 211 | 4.8 | 8.0 | 0.00 | 0.00 | 0.00 | 3 | 1013.6 |
| 20260509063605 | 17 | 203 | 4.8 | 11.3 | 0.00 | 0.00 | 0.00 | 3 | 1013.6 |
| 20260509063104 | 17 | 210 | 6.4 | 12.9 | 0.00 | 0.00 | 0.00 | 3 | 1013.6 |
| 20260509062604 | 17 | 203 | 3.2 | 9.7 | 0.00 | 0.00 | 0.00 | 3 | 1013.7 |
| 20260509062104 | 17 | 213 | 1.6 | 4.8 | 0.00 | 0.00 | 0.00 | 3 | 1013.8 |
| 20260509061604 | 17 | 147 | 0.0 | 4.8 | 0.00 | 0.00 | 0.00 | 3 | 1013.8 |
| 20260509061104 | 17 | 178 | 0.0 | 3.2 | 0.00 | 0.00 | 0.00 | 3 | 1013.8 |
| 20260509060604 | 16 | 198 | 1.6 | 14.5 | 0.00 | 0.00 | 0.00 | 3 | 1013.8 |
| 20260509060104 | 16 | 185 | 4.8 | 9.7 | 0.00 | 0.00 | 0.00 | 3 | 1013.7 |
| 20260509055604 | 16 | 184 | 4.8 | 11.3 | 0.00 | 0.00 | 0.00 | 3 | 1013.8 |